Fort Myers, FL

11:33 PM EDT on May 26, 2017 (GMT -0400)
Page

Weather History for KFMY - July, 2012

Change the Weather History Date:

Saturday, July 28, 2012

  Actual Average Record
Temperature  
Mean Temperature 84 °F 83 °F  
Max Temperature 90 °F 92 °F 97 °F (1979)
Min Temperature 77 °F 75 °F 70 °F (1938)
Degree Days  
Heating Degree Days 0 0  
Month to date heating degree days 0 0  
Since 1 June heating degree days 0 0  
Since 1 July heating degree days 0 0  
Cooling Degree Days 19 18  
Month to date cooling degree days 526 504  
Year to date cooling degree days 2488 2095  
Since 1 June cooling degree days 1050 1029  
Growing Degree Days 33 (Base 50)    
Moisture  
Dew Point 74 °F    
Average Humidity 72    
Maximum Humidity 88    
Minimum Humidity 56    
Precipitation  
Precipitation 0.12 in 0.29 in 2.52 in (1920)
Month to date precipitation 9.39 8.15  
Year to date precipitation 27.12 30.04  
Sea Level Pressure  
Sea Level Pressure 30.08 in    
Wind  
Wind Speed 2 mph (SSW)    
Max Wind Speed 16 mph    
Max Gust Speed 18 mph    
Visibility 9 miles    
Events Rain , Thunderstorm    
T = Trace of Precipitation, MM = Missing Value Source: NWS Daily Summary

Daily Weather History Graph

Daily Weather History Graph

Search for Another Location

Airport or City:

Trip Planner

Search our weather history database for the weather conditions in past years. The results will help you decide how hot, cold, wet, or windy it might be!

Date:

Astronomy

Jul. 28, 2012 Rise Set
Actual Time 6:50 AM EDT 8:16 PM EDT
Civil Twilight 6:25 AM EDT 8:42 PM EDT
Nautical Twilight 5:55 AM EDT 9:11 PM EDT
Astronomical Twilight 5:24 AM EDT 9:43 PM EDT
Moon 4:14 PM EDT (7/28) 2:12 AM EDT (7/28)
Length of Visible Light 14h 16m
Length of Day
13h 26m
Waxing Gibbous, 75% of the Moon is Illuminated
Jul 28
Waxing Gibbous
Aug 1
Full
Aug 9
Last Quarter
Aug 17
New
Aug 24
First Quarter

Hourly Weather History & Observations

Time (EDT) Temp. Heat Index Dew Point Humidity Pressure Visibility Wind Dir Wind Speed Gust Speed Precip Events Conditions
12:53 AM 80.1 °F 84.5 °F 73.9 °F 81% 30.09 in 10.0 mi Calm Calm - N/A   Clear
1:53 AM 79.0 °F - 73.9 °F 84% 30.07 in 10.0 mi Calm Calm - N/A   Clear
2:53 AM 79.0 °F - 73.0 °F 82% 30.06 in 10.0 mi SSE 4.6 mph - N/A   Clear
3:53 AM 78.1 °F - 73.9 °F 87% 30.06 in 10.0 mi Calm Calm - N/A   Clear
4:53 AM 78.1 °F - 73.9 °F 87% 30.05 in 10.0 mi SE 3.5 mph - N/A   Clear
5:53 AM 77.0 °F - 73.9 °F 90% 30.07 in 10.0 mi Calm Calm - N/A   Clear
6:53 AM 78.1 °F - 73.9 °F 87% 30.08 in 10.0 mi Calm Calm - N/A   Clear
7:53 AM 80.1 °F 84.5 °F 73.9 °F 81% 30.09 in 10.0 mi Calm Calm - N/A   Clear
8:53 AM 84.0 °F 91.9 °F 75.0 °F 74% 30.11 in 10.0 mi Calm Calm - N/A   Clear
9:53 AM 86.0 °F 93.8 °F 73.9 °F 67% 30.11 in 10.0 mi Calm Calm - N/A   Clear
10:25 AM 86.0 °F 93.4 °F 73.4 °F 66% 30.11 in 10.0 mi SE 3.5 mph - N/A   Overcast
10:39 AM 87.8 °F 95.6 °F 73.4 °F 62% 30.11 in 10.0 mi South 4.6 mph - N/A   Overcast
10:53 AM 89.1 °F 98.0 °F 73.9 °F 61% 30.11 in 10.0 mi Calm Calm - N/A   Mostly Cloudy
11:53 AM 87.1 °F 95.4 °F 73.9 °F 65% 30.11 in 10.0 mi West 10.4 mph - N/A   Scattered Clouds
12:37 PM 84.2 °F 90.9 °F 73.4 °F 70% 30.11 in 10.0 mi NNW 12.7 mph - N/A   Mostly Cloudy
12:44 PM 84.2 °F 90.9 °F 73.4 °F 70% 30.10 in 10.0 mi NNW 11.5 mph - N/A Thunderstorm Mostly Cloudy
12:53 PM 84.9 °F 91.4 °F 73.0 °F 67% 30.11 in 10.0 mi North 9.2 mph - N/A Thunderstorm Mostly Cloudy
1:32 PM 80.6 °F 86.2 °F 75.2 °F 84% 30.10 in 4.0 mi East 8.1 mph - 0.01 in Rain Rain
1:53 PM 80.1 °F 85.1 °F 75.0 °F 85% 30.11 in 5.0 mi North 3.5 mph - 0.09 in Rain Heavy Rain
2:53 PM 86.0 °F 93.8 °F 73.9 °F 67% 30.10 in 3.0 mi Calm Calm - 0.03 in   Haze
3:18 PM 87.8 °F 95.6 °F 73.4 °F 62% 30.08 in 10.0 mi Calm Calm - N/A Thunderstorm Mostly Cloudy
3:38 PM 87.8 °F 95.6 °F 73.4 °F 62% 30.06 in 10.0 mi South 3.5 mph - N/A   Mostly Cloudy
3:53 PM 89.1 °F 98.0 °F 73.9 °F 61% 30.06 in 10.0 mi Variable 4.6 mph - N/A   Overcast
4:53 PM 84.9 °F 92.1 °F 73.9 °F 69% 30.06 in 10.0 mi SW 6.9 mph - 0.00 in Rain Light Rain
5:53 PM 87.1 °F 95.4 °F 73.9 °F 65% 30.04 in 10.0 mi Calm Calm - 0.00 in   Mostly Cloudy
6:53 PM 89.1 °F 95.0 °F 71.1 °F 55% 30.04 in 10.0 mi Calm Calm - N/A   Clear
7:53 PM 87.1 °F 92.8 °F 71.1 °F 59% 30.04 in 10.0 mi Calm Calm - N/A   Clear
8:53 PM 84.0 °F 90.2 °F 73.0 °F 69% 30.05 in 10.0 mi West 3.5 mph - N/A   Clear
9:53 PM 84.0 °F 89.6 °F 72.0 °F 67% 30.06 in 10.0 mi Calm Calm - N/A   Clear
10:53 PM 82.0 °F 88.6 °F 75.0 °F 79% 30.08 in 10.0 mi Calm Calm - N/A   Clear
11:53 PM 81.0 °F 86.2 °F 73.9 °F 79% 30.07 in 10.0 mi Calm Calm - N/A   Clear